Weather History for New Delhi, India

Change the Weather History Date:

Tuesday, July 9, 2013

  Actual Average Record
Temperature  
Mean Temperature 85 °F -  
Max Temperature 93 °F 93 °F 140 °F (1997)
Min Temperature 77 °F 80 °F 73 °F (2006)
Cooling Degree Days 20    
Growing Degree Days 35 (Base 50)    
Moisture  
Dew Point 79 °F    
Average Humidity 86    
Maximum Humidity 100    
Minimum Humidity 59    
Precipitation  
Precipitation 0.00 in - - ()
Sea Level Pressure  
Sea Level Pressure 29.48 in    
Wind  
Wind Speed 5 mph ()    
Max Wind Speed 14 mph    
Max Gust Speed 21 mph    
Visibility 1.6 miles    
Events Rain , Thunderstorm    
Averages and records for this station are not official NWS values.
T = Trace of Precipitation, MM = Missing Value Source: Averaged Metar Reports

Daily Weather History Graph

Daily Weather History Graph

Search for Another Location

Airport:

Trip Planner

Search our weather history database for the weather conditions in past years. The results will help you decide how hot, cold, wet, or windy it might be!

Date:

Astronomy

Jul. 09, 2013 Rise Set
Actual Time 5:30 AM IST 7:22 PM IST
Civil Twilight 5:04 AM IST 7:49 PM IST
Nautical Twilight 4:31 AM IST 8:21 PM IST
Astronomical Twilight 3:57 AM IST 8:55 PM IST
Moon 6:20 AM IST (7/9) 7:55 PM IST (7/9)
Length of Visible Light 14h 45m
Length of Day
13h 51m
New Moon, 1% of the Moon is Illuminated
Jul 9
New Moon
Jul 16
First Quarter
Jul 22
Full
Jul 29
Last Quarter
Aug 7
New

Hourly Weather History & Observations

Time (IST) Temp. Heat Index Dew Point Humidity Pressure Visibility Wind Dir Wind Speed Gust Speed Precip Events Conditions
12:00 AM 82.4 °F 92.4 °F 78.8 °F 89% 29.53 in 1.7 mi West 3.5 mph - N/A   Mostly Cloudy
12:30 AM 82.4 °F 92.4 °F 78.8 °F 89% 29.53 in 1.9 mi West 4.6 mph - N/A   Mostly Cloudy
1:00 AM 82.4 °F 92.4 °F 78.8 °F 89% 29.50 in 1.9 mi West 3.5 mph - N/A   Mostly Cloudy
1:30 AM 82.4 °F 92.4 °F 78.8 °F 89% 29.50 in 1.9 mi WSW 5.8 mph - N/A   Mostly Cloudy
2:00 AM 80.6 °F 88.1 °F 78.8 °F 94% 29.50 in 1.9 mi SW 6.9 mph - N/A   Mostly Cloudy
2:30 AM 80.6 °F 88.1 °F 78.8 °F 94% 29.47 in 1.9 mi SW 5.8 mph - N/A   Drizzle
3:00 AM 80.6 °F 88.1 °F 78.8 °F 94% 29.47 in 1.9 mi WSW 6.9 mph - N/A   Mostly Cloudy
3:30 AM 80.6 °F 88.1 °F 78.8 °F 94% 29.47 in 1.9 mi South 3.5 mph - N/A   Mostly Cloudy
4:00 AM 80.6 °F 88.1 °F 78.8 °F 94% 29.47 in 1.9 mi WNW 3.5 mph - N/A Rain Light Rain
4:30 AM 80.6 °F 88.1 °F 78.8 °F 94% 29.47 in 1.9 mi WSW 5.8 mph - N/A   Mostly Cloudy
5:00 AM 80.6 °F 88.1 °F 78.8 °F 94% 29.47 in 1.9 mi SW 5.8 mph - N/A   Mostly Cloudy
5:30 AM 80.6 °F 88.1 °F 78.8 °F 94% 29.47 in 1.9 mi WSW 5.8 mph - N/A   Mostly Cloudy
6:00 AM 80.6 °F 88.1 °F 78.8 °F 94% 29.47 in 1.9 mi SSW 4.6 mph - N/A   Mostly Cloudy
6:30 AM 80.6 °F 88.1 °F 78.8 °F 94% 29.47 in 1.6 mi SW 5.8 mph - N/A   Mostly Cloudy
7:00 AM 80.6 °F 88.1 °F 78.8 °F 94% 29.47 in 1.6 mi SSW 4.6 mph - N/A   Mostly Cloudy
7:30 AM 82.4 °F 92.4 °F 78.8 °F 89% 29.50 in 1.6 mi SSW 4.6 mph - N/A   Mostly Cloudy
8:00 AM 84.2 °F 96.1 °F 78.8 °F 84% 29.53 in 1.6 mi WSW 5.8 mph - N/A   Mostly Cloudy
8:30 AM 84.2 °F 96.1 °F 78.8 °F 84% 29.53 in 1.6 mi WSW 8.1 mph - N/A   Mostly Cloudy
9:00 AM 84.2 °F 98.3 °F 80.6 °F 89% 29.53 in 1.6 mi NW 9.2 mph - N/A   Mostly Cloudy
9:30 AM 86.0 °F 99.3 °F 78.8 °F 79% 29.53 in 1.6 mi NW 6.9 mph - N/A   Mostly Cloudy
10:00 AM 86.0 °F 99.3 °F 78.8 °F 79% 29.53 in 1.7 mi WNW 9.2 mph - N/A   Mostly Cloudy
10:30 AM 87.8 °F 102.5 °F 78.8 °F 75% 29.53 in 1.7 mi WNW 9.2 mph - N/A   Haze
11:30 AM 89.6 °F 104.7 °F 78.8 °F 70% 29.53 in 1.2 mi WSW 13.8 mph - N/A Rain Light Rain
12:00 PM 87.8 °F 104.9 °F 80.6 °F 79% 29.53 in 1.6 mi NW 9.2 mph - N/A   Mostly Cloudy
1:00 PM 89.6 °F 108.2 °F 80.6 °F 75% 29.50 in 1.4 mi West 8.1 mph - N/A   Haze
1:30 PM 84.2 °F 98.3 °F 80.6 °F 89% 29.50 in 1.4 mi SW 6.9 mph - N/A   Haze
2:00 PM 86.0 °F 107.7 °F 84.2 °F 94% 29.47 in 1.4 mi West 9.2 mph 20.7 mph N/A Rain Light Rain
2:30 PM 86.0 °F 104.7 °F 82.4 °F 89% 29.47 in 1.4 mi WSW 5.8 mph - N/A   Mostly Cloudy
3:30 PM 91.4 °F 107.2 °F 78.8 °F 66% 29.44 in 1.6 mi ENE 4.6 mph - N/A   Haze
4:00 PM 91.4 °F 111.0 °F 80.6 °F 71% 29.44 in 1.6 mi SW 6.9 mph - N/A   Haze
4:30 PM 93.2 °F 110.2 °F 78.8 °F 63% 29.42 in 1.6 mi SW 5.8 mph - N/A   Haze
5:00 PM 93.2 °F 110.2 °F 78.8 °F 63% 29.42 in 1.6 mi SW 5.8 mph - N/A   Haze
5:30 PM 93.2 °F 107.2 °F 77.0 °F 59% 29.39 in 1.6 mi SSW 4.6 mph - N/A   Haze
6:00 PM 91.4 °F 107.2 °F 78.8 °F 66% 29.39 in 1.6 mi South 4.6 mph - N/A   Haze
6:30 PM 89.6 °F 104.7 °F 78.8 °F 70% 29.42 in 1.6 mi South 9.2 mph - N/A   Light Drizzle
8:30 PM 77.0 °F - 77.0 °F 100% 29.47 in 1.1 mi SSW 5.8 mph - N/A Thunderstorm Thunderstorm
9:00 PM 77.0 °F - 77.0 °F 100% 29.47 in 1.2 mi SW 5.8 mph - N/A   Overcast
9:30 PM 77.0 °F - 77.0 °F 100% 29.47 in 1.6 mi SW 5.8 mph - N/A   Mostly Cloudy
10:00 PM 78.8 °F - 78.8 °F 100% 29.47 in 1.6 mi SSW 5.8 mph - N/A   Mostly Cloudy
10:30 PM 78.8 °F - 77.0 °F 94% 29.47 in 1.6 mi West 4.6 mph - N/A   Mostly Cloudy
11:00 PM 80.6 °F 87.1 °F 77.0 °F 89% 29.47 in 1.6 mi WSW 5.8 mph - N/A   Scattered Clouds
11:30 PM 80.6 °F 87.1 °F 77.0 °F 89% 29.47 in 1.7 mi West 2.3 mph - N/A   Scattered Clouds